Weather in Krivyachka

Russia / Kostroma Oblast     58°39′44″N   45°27′18″E
temp.,
°C
wind,
m/s
gust,
m/s
humid.,
%
clouds,
%
prec.,
mm/h
press.,
hPa
HPBL,
m
24 july, sat
sat2400:00+10nnw399885 0.0 1003333
03:00+8nw3998100 0.0 1006263
06:00+9nnw399494 0.0 1008484
09:00+13nnw47421 0.0 10101416
12:00+16nnw463088 0.0 10102152
15:00+17nw4631100 0.0 10112505
18:00+16nw3539100 0.0 10132125
21:00+9nnw11645 0.0 101510
25 july, sun
sun2500:00+7sw22695 0.0 101710
03:00+6wsw247336 0.0 101869
06:00+10wsw26597 0.0 1019193
09:00+17wnw374214 0.0 10191386
12:00+18wnw363777 0.0 10192122
15:00+19wnw2643100 0.0 10191829
18:00+16n2461100 0.0 1019103
21:00+12wnw11685 0.0 102110
26 july, mon
mon2600:00+13wsw2264100 0.0 102149
03:00+13wsw2664100 0.0 1021133
06:00+13wsw276792 0.0 1022210
09:00+18wsw365491 0.0 1021367
12:00+23w473597 0.0 10202641
15:00+23wsw3741100 0.0 10192418
18:00+20w4105646 0.0 1019642
21:00+15w397689 0.0 1019201
27 july, tue
tue2700:00+13wnw399745 1.6 1020191
03:00+12nw25976 1.7 1020101
06:00+14wnw139356 0.0 1020110
09:00+19wnw247098 0.0 1020596
12:00+21nw35697 0.8 10191272
15:00+22nw36608 2.1 10191218
18:00+20n26596 0.0 1018382
21:00+15nne11715 0.0 101811
28 july, wed
wed2800:00+12wnw007521 0.0 101910
03:00+12w11764 0.0 101811
06:00+15sw2574100 0.0 1017145
09:00+22wsw4756100 0.0 1015711
12:00+26w5839100 0.0 10132099
15:00+25wsw3848100 0.0 1012617
18:00+25w48482 0.0 1010916
21:00+18wnw22757 0.0 101012